Home > Weather > Riverside > Past weeks

Flag for U.S.A. Weather for the Past 2 Weeks in Riverside, California, U.S.A.

Now
58 °F

Clear.


Feels Like: 58 °F
Forecast: 49 / 84 °F
Wind: No wind

Location: Riverside Municipal Airport

Current Time: Feb 13, 2016 at 1:25:31 AM

Latest Report: Feb 13, 2016 at 12:53 AM


Visibility: 6 mi

Pressure: 30.06 "Hg

Humidity: 50%

Dew point: 39 °F

Location of RiversideLocation

Historic Weather in Riverside — Graph

°F

Riverside Temperature Yesterday

Maximum temperature yesterday: 87 °F (at 2:53 PM)
Minimum temperature yesterday: 53 °F (at 6:53 AM)
Average temperature yesterday: 68 °F

High & Low Weather Summary for the Past Weeks

 TemperatureHumidityPressure
High89 °F (Feb 10, 2:53 PM)90% (Jan 30, 10:53 PM)30.34 "Hg (Jan 30, 10:53 PM)
Low37 °F (Feb 2, 3:53 AM)7% (Feb 10, 2:53 PM)29.58 "Hg (Jan 31, 1:53 PM)
Average61 °F36%30.10 "Hg
* Reported Jan 28 11:53 PM — Feb 12 11:53 PM, Riverside, Weather by CustomWeather, © 2016

Note: Actual official high and low records may vary slightly from our data, if they occured in-between our weather recording intervals... More about our weather records

Advertising

Riverside Weather History for the Previous 24 Hours

 ConditionsComfort  
Time TempWeatherWind HumidityBarometerVisibility
11:53 PM
Fri, Feb 12
58 °FClear.3 mph54%30.06 "Hg7 mi
10:53 PM60 °FClear.3 mph49%30.06 "Hg7 mi
9:53 PM63 °FClear.No wind43%30.05 "Hg8 mi
8:53 PM65 °FClear.No wind40%30.05 "Hg7 mi
7:53 PM69 °FClear.No wind31%30.03 "Hg7 mi
6:53 PM72 °FClear.No wind29%30.03 "Hg7 mi
5:53 PM76 °FClear.5 mph25%30.01 "Hg10 mi
4:53 PM82 °FSunny.7 mph16%30.00 "Hg10 mi
3:53 PM85 °FSunny.8 mph13%29.98 "Hg10 mi
2:53 PM87 °FPassing clouds.7 mph9%29.98 "Hg10 mi
12:53 PM86 °FSunny.No wind9%30.01 "Hg10 mi
11:53 AM84 °FSunny.3 mph10%30.05 "Hg10 mi
10:53 AM81 °FPassing clouds.No wind16%30.08 "Hg10 mi
9:53 AM72 °FPassing clouds.No wind23%30.10 "Hg10 mi
8:53 AM65 °FPassing clouds.3 mph29%30.10 "Hg10 mi
7:53 AM58 °FPassing clouds.6 mph36%30.10 "Hg10 mi
6:53 AM53 °FPassing clouds.7 mph43%30.09 "Hg10 mi
5:53 AM54 °FClear.5 mph41%30.08 "Hg10 mi
4:53 AM55 °FClear.7 mph40%30.06 "Hg10 mi
3:53 AM56 °FClear.6 mph40%30.06 "Hg10 mi
2:53 AM57 °FClear.6 mph37%30.07 "Hg10 mi
1:53 AM57 °FClear.7 mph39%30.09 "Hg10 mi
Weather by CustomWeather, © 2016

See weather overviewHow to use our weather pages